Change the Weather History Date:

Thursday, January 5, 2012

  Actual Average (KLWV) Record (KLWV)
Temperature  
Mean Temperature 40 °F 31 °F  
Max Temperature 55 °F 39 °F 59 °F (1998)
Min Temperature 25 °F 23 °F 0 °F (1999)
Degree Days  
Heating Degree Days 25 34  
Month to date heating degree days 170  
Since 1 July heating degree days 1969  
Cooling Degree Days 0 0  
Month to date cooling degree days 0  
Year to date cooling degree days 0  
Moisture  
Dew Point 28 °F    
Average Humidity 63    
Maximum Humidity 89    
Minimum Humidity 36    
Precipitation  
Precipitation 0.00 in 0.09 in 1.94 in (2005)
Month to date precipitation 0.47  
Year to date precipitation 0.47  
Sea Level Pressure  
Sea Level Pressure 30.04 in    
Wind  
Wind Speed 8 mph (SSW)    
Max Wind Speed 17 mph    
Max Gust Speed 22 mph    
Visibility 10 miles    
Events      
T = Trace of Precipitation, MM = Missing Value Source: NWS Daily Summary

Daily Weather History Graph

Daily Weather History Graph

Search for Another Location

Airport or City:

Trip Planner

Search our weather history database for the weather conditions in past years. The results will help you decide how hot, cold, wet, or windy it might be!

Date:

Astronomy

Jan. 05, 2012 Rise Set
Actual Time 7:09 AM CST 4:42 PM CST
Civil Twilight 6:40 AM CST 5:11 PM CST
Nautical Twilight 6:06 AM CST 5:45 PM CST
Astronomical Twilight 5:34 AM CST 6:17 PM CST
Moon 1:45 PM CST (1/5) 3:54 AM CST (1/5)
Length of Visible Light 10h 31m
Length of Day
9h 32m
Waxing Gibbous, 88% of the Moon is Illuminated
Jan 5
Waxing Gibbous
Jan 9
Full
Jan 16
Last Quarter
Jan 23
New
Jan 30
First Quarter

Hourly Weather History & Observations

Time (CST) Temp. Windchill Dew Point Humidity Pressure Visibility Wind Dir Wind Speed Gust Speed Precip Events Conditions
12:15 AM 31.3 °F 25.6 °F 26.6 °F 83% 30.13 in 10.0 mi WSW 5.8 mph - N/A   Clear
12:35 AM 30.0 °F 24.1 °F 25.7 °F 84% 30.13 in 10.0 mi WSW 5.8 mph - N/A   Clear
1:15 AM 30.2 °F 25.4 °F 25.7 °F 83% 30.13 in 10.0 mi WSW 4.6 mph - N/A   Clear
1:35 AM 29.1 °F 24.1 °F 25.5 °F 86% 30.12 in 10.0 mi SW 4.6 mph - N/A   Clear
2:35 AM 26.4 °F 20.9 °F 22.8 °F 86% 30.14 in 10.0 mi SW 4.6 mph - N/A   Clear
2:55 AM 26.2 °F 22.1 °F 23.0 °F 88% 30.13 in 10.0 mi SW 3.5 mph - N/A   Clear
3:15 AM 27.9 °F - 24.3 °F 86% 30.14 in 10.0 mi Calm Calm - N/A   Clear
3:35 AM 27.0 °F 21.6 °F 23.4 °F 86% 30.14 in 10.0 mi SSW 4.6 mph - N/A   Clear
3:55 AM 25.2 °F 17.3 °F 22.5 °F 89% 30.14 in 10.0 mi SSW 6.9 mph - N/A   Clear
4:15 AM 26.6 °F 21.2 °F 23.7 °F 89% 30.15 in 10.0 mi SW 4.6 mph - N/A   Clear
4:35 AM 27.9 °F 20.6 °F 25.0 °F 89% 30.15 in 10.0 mi SSW 6.9 mph - N/A   Clear
4:55 AM 28.0 °F 20.8 °F 24.8 °F 88% 30.15 in 10.0 mi SW 6.9 mph - N/A   Clear
5:15 AM 28.4 °F 22.2 °F 25.0 °F 87% 30.15 in 10.0 mi SSW 5.8 mph - N/A   Clear
5:35 AM 29.1 °F 24.1 °F 25.3 °F 86% 30.15 in 10.0 mi South 4.6 mph - N/A   Clear
5:55 AM 27.0 °F 23.0 °F 23.2 °F 86% 30.15 in 10.0 mi South 3.5 mph - N/A   Clear
6:15 AM 26.2 °F 20.7 °F 23.4 °F 89% 30.14 in 10.0 mi SSE 4.6 mph - N/A   Clear
6:35 AM 26.1 °F 20.5 °F 23.0 °F 88% 30.14 in 10.0 mi SSE 4.6 mph - N/A   Clear
6:55 AM 25.9 °F 21.7 °F 23.0 °F 89% 30.15 in 10.0 mi South 3.5 mph - N/A   Clear
7:35 AM 29.1 °F 23.0 °F 25.9 °F 88% 30.13 in 10.0 mi SSE 5.8 mph - N/A   Clear
7:55 AM 31.1 °F 26.4 °F 27.1 °F 85% 30.12 in 10.0 mi SSE 4.6 mph - N/A   Clear
8:55 AM 36.5 °F 30.3 °F 29.1 °F 75% 30.12 in 10.0 mi South 8.1 mph - N/A   Clear
9:15 AM 39.6 °F 34.0 °F 30.0 °F 69% 30.12 in 10.0 mi South 8.1 mph - N/A   Clear
9:35 AM 42.1 °F 36.6 °F 28.6 °F 59% 30.11 in 10.0 mi South 9.2 mph - N/A   Clear
9:55 AM 43.2 °F 37.0 °F 28.9 °F 57% 30.11 in 10.0 mi South 11.5 mph - N/A   Clear
10:15 AM 44.2 °F 38.4 °F 28.8 °F 55% 30.10 in 10.0 mi South 11.5 mph - N/A   Clear
10:35 AM 46.0 °F 41.0 °F 28.4 °F 50% 30.09 in 10.0 mi South 10.4 mph - N/A   Clear
10:55 AM 47.8 °F - 28.4 °F 47% 30.08 in 10.0 mi SSW 13.8 mph - N/A   Clear
11:15 AM 49.1 °F - 27.7 °F 44% 30.07 in 10.0 mi South 15.0 mph 19.6 mph N/A   Clear
11:55 AM 51.4 °F - 28.0 °F 40% 30.03 in 10.0 mi SSW 12.7 mph 17.3 mph N/A   Clear
12:15 PM 52.5 °F - 28.2 °F 39% 30.02 in 10.0 mi SW 17.3 mph 21.9 mph N/A   Clear
12:55 PM 53.6 °F - 28.8 °F 39% 30.00 in 10.0 mi SW 13.8 mph - N/A   Clear
1:15 PM 54.5 °F - 28.6 °F 37% 30.00 in 10.0 mi SSW 13.8 mph 17.3 mph N/A   Clear
1:35 PM 54.5 °F - 28.9 °F 38% 29.98 in 10.0 mi SSW 12.7 mph 19.6 mph N/A   Clear
1:55 PM 55.6 °F - 28.9 °F 36% 29.98 in 10.0 mi SW 12.7 mph - N/A   Clear
2:15 PM 55.0 °F - 29.1 °F 37% 29.97 in 10.0 mi SSW 15.0 mph - N/A   Clear
2:35 PM 55.6 °F - 29.3 °F 37% 29.96 in 10.0 mi SSW 13.8 mph - N/A   Clear
2:55 PM 55.9 °F - 29.8 °F 37% 29.96 in 10.0 mi SSW 12.7 mph - N/A   Clear
3:15 PM 55.8 °F - 29.8 °F 37% 29.96 in 10.0 mi SSW 12.7 mph - N/A   Clear
3:35 PM 55.4 °F - 29.8 °F 38% 29.96 in 10.0 mi SSW 10.4 mph 18.4 mph N/A   Clear
3:55 PM 53.6 °F - 30.2 °F 41% 29.96 in 10.0 mi SSW 10.4 mph - N/A   Clear
4:15 PM 50.9 °F - 30.2 °F 45% 29.96 in 10.0 mi SSW 6.9 mph - N/A   Clear
4:35 PM 48.7 °F - 29.8 °F 48% 29.96 in 10.0 mi South 6.9 mph - N/A   Clear
4:55 PM 48.2 °F - 29.8 °F 49% 29.96 in 10.0 mi South 8.1 mph - N/A   Clear
5:15 PM 46.4 °F 42.4 °F 30.2 °F 53% 29.96 in 10.0 mi South 8.1 mph - N/A   Clear
5:35 PM 43.3 °F 38.6 °F 29.5 °F 58% 29.96 in 10.0 mi South 8.1 mph - N/A   Clear
5:55 PM 44.8 °F 40.4 °F 29.7 °F 55% 29.96 in 10.0 mi South 8.1 mph - N/A   Clear
6:15 PM 42.8 °F 38.6 °F 29.8 °F 60% 29.96 in 10.0 mi South 6.9 mph - N/A   Clear
6:35 PM 43.7 °F 39.1 °F 30.2 °F 59% 29.96 in 10.0 mi South 8.1 mph - N/A   Clear
6:55 PM 44.6 °F 39.7 °F 30.6 °F 58% 29.96 in 10.0 mi South 9.2 mph - N/A   Clear
7:15 PM 45.0 °F 40.6 °F 30.6 °F 57% 29.96 in 10.0 mi South 8.1 mph - N/A   Clear
7:35 PM 46.2 °F 41.2 °F 30.6 °F 54% 29.96 in 10.0 mi South 10.4 mph - N/A   Clear
8:15 PM 46.6 °F - 30.7 °F 54% 29.95 in 10.0 mi South 11.5 mph - N/A   Clear
8:35 PM 45.9 °F 40.4 °F 30.9 °F 56% 29.95 in 10.0 mi South 11.5 mph - N/A   Clear
9:35 PM 45.3 °F 39.3 °F 31.6 °F 59% 29.94 in 10.0 mi South 12.7 mph - N/A   Clear
9:55 PM 45.0 °F 38.9 °F 31.8 °F 60% 29.93 in 10.0 mi South 12.7 mph - N/A   Clear
10:15 PM 45.0 °F 38.5 °F 32.0 °F 60% 29.93 in 10.0 mi SSW 13.8 mph - N/A   Clear
10:55 PM 44.6 °F 38.1 °F 32.0 °F 61% 29.92 in 10.0 mi SSW 13.8 mph - N/A   Clear
11:35 PM 44.2 °F 38.0 °F 32.0 °F 62% 29.91 in 10.0 mi SSW 12.7 mph - N/A   Clear
11:55 PM 44.2 °F 38.0 °F 32.0 °F 62% 29.91 in 10.0 mi SSW 12.7 mph - N/A   Clear